When you browse on this site, cookies collect data to enhance your experience and personalize the content and advertising you see.
Visit our Privacy Policy to learn more. By continuing to use the site, you agree to this use of cookies and data.
  • In Czech Republic
  • List of Countries
  • For 7 days
  • Water Temperature
  • Weather Map
  • Weather Widgets
  • user-avatar
    Login

    Hourly Weather Shaki

    Today, 7 April, Tuesday

    Time Temperature Precipitation Wind Pressure Humidity
    00:00 +4°C° 0.5 mm 6 mps 742 mmHg 89%
    01:00 +4°C° 0.5 mm 6 mps 742 mmHg 90%
    02:00 +5°C° 0.5 mm 5 mps 742 mmHg 92%
    03:00 +3°C° 0 mm 5 mps 742 mmHg 93%
    04:00 +3°C° 0.7 mm 5 mps 743 mmHg 94%
    05:00 +2°C° 0.7 mm 5 mps 743 mmHg 95%
    06:00 +2°C° 0.7 mm 5 mps 744 mmHg 96%
    07:00 +1°C° 0.7 mm 5 mps 744 mmHg 96%
    08:00 +1°C° 0.7 mm 5 mps 744 mmHg 96%
    09:00 +1°C° 0.7 mm 5 mps 744 mmHg 96%
    10:00 +1°C° 0.5 mm 4 mps 744 mmHg 96%
    11:00 +1°C° 0.5 mm 4 mps 744 mmHg 95%
    12:00 +1°C° 0.5 mm 4 mps 744 mmHg 95%
    13:00 +1°C° 0.3 mm 4 mps 744 mmHg 95%
    14:00 +2°C° 0.3 mm 3 mps 744 mmHg 96%
    15:00 +2°C° 0.3 mm 3 mps 744 mmHg 96%
    16:00 +2°C° 0.3 mm 3 mps 744 mmHg 96%
    17:00 +2°C° 0.3 mm 3 mps 744 mmHg 96%
    18:00 +3°C° 0.3 mm 2 mps 745 mmHg 96%
    19:00 +2°C° 0.3 mm 2 mps 745 mmHg 96%
    20:00 +2°C° 0.3 mm 2 mps 746 mmHg 96%
    21:00 +2°C° 0.3 mm 2 mps 746 mmHg 96%
    22:00 +2°C° 0.2 mm 2 mps 747 mmHg 96%
    23:00 +2°C° 0.2 mm 2 mps 747 mmHg 96%

    Tomorrow, 8 April, Wednesday

    Time Temperature Precipitation Wind Pressure Humidity
    00:00 +1°C° 0.2 mm 2 mps 747 mmHg 96%
    01:00 +1°C° 0.2 mm 2 mps 747 mmHg 96%
    02:00 +1°C° 0.2 mm 2 mps 747 mmHg 96%
    03:00 +1°C° 0.2 mm 2 mps 747 mmHg 96%
    04:00 +1°C° 0.2 mm 2 mps 748 mmHg 95%
    05:00 +1°C° 0.2 mm 2 mps 748 mmHg 95%
    06:00 +1°C° 0.2 mm 2 mps 748 mmHg 94%
    07:00 +1°C° 0.1 mm 2 mps 748 mmHg 94%
    08:00 +2°C° 0.1 mm 2 mps 748 mmHg 94%
    09:00 +2°C° 0.1 mm 2 mps 748 mmHg 93%
    10:00 +3°C° 0.1 mm 2 mps 748 mmHg 88%
    11:00 +3°C° 0.1 mm 3 mps 747 mmHg 84%
    12:00 +4°C° 0.1 mm 3 mps 747 mmHg 79%
    13:00 +4°C° 0.1 mm 3 mps 746 mmHg 76%
    14:00 +6°C° 0.1 mm 2 mps 746 mmHg 73%
    15:00 +6°C° 0.1 mm 2 mps 745 mmHg 71%
    16:00 +5°C° 0 mm 2 mps 745 mmHg 72%
    17:00 +6°C° 0 mm 1 mps 745 mmHg 74%
    18:00 +5°C° 0 mm 1 mps 744 mmHg 75%
    19:00 +5°C° 0 mm 1 mps 744 mmHg 74%
    20:00 +4°C° 0 mm 1 mps 744 mmHg 73%
    21:00 +2°C° 0 mm 2 mps 744 mmHg 72%
    22:00 +3°C° 0 mm 1 mps 743 mmHg 71%
    23:00 +3°C° 0 mm 1 mps 743 mmHg 69%

    Day after tomorrow, 9 April, Thursday

    Time Temperature Precipitation Wind Pressure Humidity
    00:00 +3°C° 0 mm 1 mps 742 mmHg 67%
    01:00 +2°C° 0 mm 1 mps 741 mmHg 68%
    02:00 +1°C° 0 mm 0 mps 740 mmHg 69%
    03:00 +1°C° 0 mm 0 mps 739 mmHg 70%
    04:00 +1°C° 0 mm 0 mps 739 mmHg 70%
    05:00 +2°C° 0 mm 1 mps 739 mmHg 70%
    06:00 +2°C° 0 mm 1 mps 738 mmHg 70%
    07:00 +3°C° 0 mm 1 mps 738 mmHg 67%
    08:00 +5°C° 0 mm 1 mps 738 mmHg 64%
    09:00 +7°C° 0 mm 1 mps 737 mmHg 61%
    10:00 +8°C° 0 mm 1 mps 737 mmHg 60%
    11:00 +9°C° 0 mm 1 mps 736 mmHg 58%
    12:00 +10°C° 0 mm 1 mps 736 mmHg 57%
    13:00 +11°C° 0 mm 1 mps 736 mmHg 56%
    14:00 +11°C° 0 mm 1 mps 735 mmHg 55%
    15:00 +12°C° 0 mm 1 mps 735 mmHg 54%
    16:00 +11°C° 0 mm 1 mps 735 mmHg 57%
    17:00 +10°C° 0 mm 1 mps 735 mmHg 61%
    18:00 +8°C° 0 mm 0 mps 735 mmHg 65%
    19:00 +8°C° 0 mm 1 mps 735 mmHg 65%
    20:00 +8°C° 0 mm 1 mps 736 mmHg 66%
    21:00 +7°C° 0 mm 1 mps 736 mmHg 66%
    22:00 +7°C° 0 mm 1 mps 736 mmHg 67%
    23:00 +6°C° 0 mm 1 mps 736 mmHg 68%

    10 April, Friday

    Time Temperature Precipitation Wind Pressure Humidity
    00:00 +6°C° 0 mm 1 mps 735 mmHg 69%
    01:00 +6°C° 0 mm 1 mps 735 mmHg 69%
    02:00 +5°C° 0 mm 1 mps 735 mmHg 69%
    03:00 +5°C° 0 mm 1 mps 735 mmHg 70%
    04:00 +5°C° 0 mm 1 mps 734 mmHg 69%
    05:00 +5°C° 0 mm 1 mps 734 mmHg 68%
    06:00 +6°C° 0 mm 1 mps 734 mmHg 67%
    07:00 +7°C° 0 mm 1 mps 734 mmHg 65%
    08:00 +9°C° 0 mm 1 mps 734 mmHg 62%
    09:00 +11°C° 0 mm 1 mps 734 mmHg 59%
    10:00 +12°C° 0 mm 1 mps 733 mmHg 56%
    11:00 +13°C° 0 mm 1 mps 733 mmHg 53%
    12:00 +15°C° 0 mm 1 mps 733 mmHg 50%
    13:00 +15°C° 0 mm 2 mps 733 mmHg 49%
    14:00 +15°C° 0 mm 2 mps 732 mmHg 49%
    15:00 +16°C° 0 mm 2 mps 732 mmHg 48%
    16:00 +15°C° 0 mm 2 mps 732 mmHg 52%
    17:00 +14°C° 0 mm 1 mps 732 mmHg 57%
    18:00 +12°C° 0 mm 1 mps 732 mmHg 62%
    19:00 +12°C° 0 mm 1 mps 732 mmHg 64%
    20:00 +11°C° 0 mm 1 mps 733 mmHg 66%
    21:00 +10°C° 0 mm 1 mps 733 mmHg 68%
    22:00 +9°C° 0 mm 1 mps 733 mmHg 71%
    23:00 +8°C° 0 mm 2 mps 732 mmHg 74%

    11 April, Saturday

    Time Temperature Precipitation Wind Pressure Humidity
    00:00 +8°C° 0 mm 2 mps 732 mmHg 76%
    01:00 +8°C° 0 mm 1 mps 732 mmHg 77%
    02:00 +8°C° 0 mm 1 mps 732 mmHg 77%
    03:00 +7°C° 0 mm 0 mps 731 mmHg 77%
    04:00 +7°C° 0 mm 0 mps 731 mmHg 76%
    05:00 +9°C° 0 mm 1 mps 731 mmHg 75%
    06:00 +9°C° 0 mm 1 mps 731 mmHg 74%
    07:00 +10°C° 0 mm 1 mps 731 mmHg 72%
    08:00 +10°C° 0 mm 2 mps 731 mmHg 70%
    09:00 +12°C° 0 mm 2 mps 731 mmHg 67%
    10:00 +12°C° 0.1 mm 3 mps 731 mmHg 66%
    11:00 +13°C° 0.1 mm 4 mps 731 mmHg 64%
    12:00 +13°C° 0.1 mm 5 mps 731 mmHg 62%
    13:00 +13°C° 0.1 mm 4 mps 731 mmHg 62%
    14:00 +14°C° 0.1 mm 4 mps 731 mmHg 62%
    15:00 +14°C° 0.1 mm 4 mps 731 mmHg 62%
    16:00 +13°C° 0 mm 3 mps 731 mmHg 64%
    17:00 +13°C° 0 mm 3 mps 731 mmHg 66%
    18:00 +13°C° 0 mm 2 mps 731 mmHg 69%
    19:00 +12°C° 0 mm 2 mps 731 mmHg 71%
    20:00 +10°C° 0 mm 2 mps 732 mmHg 74%
    21:00 +9°C° 0 mm 2 mps 732 mmHg 76%
    22:00 +10°C° 0 mm 1 mps 733 mmHg 76%
    23:00 +10°C° 0 mm 1 mps 733 mmHg 76%

    12 April, Sunday

    Time Temperature Precipitation Wind Pressure Humidity
    00:00 +10°C° 0 mm 1 mps 733 mmHg 76%
    01:00 +10°C° 0 mm 1 mps 733 mmHg 77%
    02:00 +10°C° 0 mm 1 mps 733 mmHg 78%
    03:00 +9°C° 0 mm 1 mps 733 mmHg 78%
    04:00 +10°C° 0.1 mm 1 mps 734 mmHg 79%
    05:00 +10°C° 0.1 mm 1 mps 734 mmHg 81%
    06:00 +10°C° 0.1 mm 1 mps 735 mmHg 82%
    07:00 +10°C° 0.3 mm 1 mps 735 mmHg 82%
    08:00 +11°C° 0.3 mm 1 mps 735 mmHg 81%
    09:00 +11°C° 0.3 mm 1 mps 736 mmHg 81%
    10:00 +12°C° 0.2 mm 2 mps 736 mmHg 79%
    11:00 +11°C° 0.2 mm 3 mps 736 mmHg 78%
    12:00 +12°C° 0.2 mm 3 mps 736 mmHg 76%
    13:00 +12°C° 0.1 mm 4 mps 736 mmHg 74%
    14:00 +13°C° 0.1 mm 4 mps 736 mmHg 71%
    15:00 +13°C° 0.1 mm 5 mps 736 mmHg 69%
    16:00 +13°C° 0.2 mm 4 mps 736 mmHg 72%
    17:00 +12°C° 0.2 mm 4 mps 736 mmHg 75%
    18:00 +11°C° 0.2 mm 3 mps 737 mmHg 77%
    19:00 +10°C° 0.2 mm 4 mps 737 mmHg 79%
    20:00 +8°C° 0.2 mm 4 mps 738 mmHg 80%
    21:00 +8°C° 0.2 mm 5 mps 738 mmHg 81%
    22:00 +7°C° 0.1 mm 4 mps 739 mmHg 80%
    23:00 +7°C° 0.1 mm 4 mps 739 mmHg 80%
    Show more